TimeCDT,TemperatureF,Dew PointF,Humidity,Sea Level PressureIn,VisibilityMPH,Wind Direction,Wind SpeedMPH,Gust SpeedMPH,PrecipitationIn,Events,Conditions,WindDirDegrees,DateUTC
12:25 AM,68.0,64.4,88,29.92,10.0,Variable,6.9,-,0.00,Rain-Thunderstorm,Light Rain,0,2014-06-09 05:25:00
12:33 AM,62.6,59.0,88,29.98,2.0,WNW,29.9,42.6,0.14,Rain-Thunderstorm,Heavy Thunderstorms and Rain,290,2014-06-09 05:33:00
12:35 AM,60.8,57.2,88,29.98,1.5,West,28.8,42.6,0.20,Rain-Thunderstorm,Heavy Thunderstorms and Rain,280,2014-06-09 05:35:00
12:45 AM,59.0,57.2,94,29.98,2.0,West,13.8,33.4,0.31,Rain-Thunderstorm,Heavy Thunderstorms and Rain,280,2014-06-09 05:45:00
12:47 AM,59.0,57.2,94,29.98,3.0,West,13.8,27.6,0.32,Rain-Thunderstorm,Thunderstorms and Rain,280,2014-06-09 05:47:00
12:53 AM,60.1,57.0,90,29.93,7.0,West,11.5,19.6,0.32,Rain-Thunderstorm,Light Thunderstorms and Rain,270,2014-06-09 05:53:00
1:03 AM,60.8,57.2,88,29.95,8.0,West,9.2,-,0.03,Rain-Thunderstorm,Thunderstorms and Rain,280,2014-06-09 06:03:00
1:21 AM,60.8,57.2,88,29.92,10.0,WNW,10.4,-,0.04,Rain,Light Rain,300,2014-06-09 06:21:00
1:53 AM,60.1,57.0,90,29.82,10.0,NNW,8.1,-,0.06,Rain,Light Rain,340,2014-06-09 06:53:00
2:03 AM,59.0,57.2,94,29.85,10.0,North,9.2,-,0.02,Rain-Thunderstorm,Light Thunderstorms and Rain,360,2014-06-09 07:03:00
2:18 AM,60.8,57.2,88,29.83,10.0,NE,8.1,-,0.03,Rain,Light Rain,40,2014-06-09 07:18:00
2:53 AM,60.1,57.0,90,29.77,10.0,Calm,Calm,-,0.04,,Partly Cloudy,0,2014-06-09 07:53:00
3:53 AM,60.1,57.0,90,29.83,10.0,WNW,15.0,21.9,0.00,Rain,Light Rain,290,2014-06-09 08:53:00
4:23 AM,60.8,57.2,88,29.90,10.0,West,12.7,-,0.00,Thunderstorm,Mostly Cloudy,280,2014-06-09 09:23:00
4:38 AM,60.8,57.2,88,29.89,10.0,West,10.4,-,0.00,Rain,Light Rain,270,2014-06-09 09:38:00
4:53 AM,61.0,57.0,87,29.80,10.0,South,5.8,-,0.00,Rain,Light Rain,180,2014-06-09 09:53:00
5:53 AM,60.1,57.9,93,29.78,10.0,West,12.7,-,0.01,,Scattered Clouds,270,2014-06-09 10:53:00
6:53 AM,60.1,57.0,90,29.78,10.0,West,11.5,-,N/A,,Clear,280,2014-06-09 11:53:00
7:53 AM,61.0,57.0,87,29.78,10.0,WNW,18.4,26.5,N/A,,Clear,300,2014-06-09 12:53:00
8:53 AM,64.0,54.0,70,29.77,10.0,NW,21.9,33.4,N/A,,Clear,310,2014-06-09 13:53:00
10:53 AM,70.0,50.0,49,29.77,10.0,NW,23.0,33.4,N/A,,Clear,310,2014-06-09 15:53:00
11:53 AM,72.0,48.0,43,29.78,10.0,NW,24.2,35.7,N/A,,Clear,320,2014-06-09 16:53:00
12:53 PM,73.0,48.9,42,29.78,10.0,NW,19.6,33.4,N/A,,Scattered Clouds,310,2014-06-09 17:53:00
1:53 PM,75.9,50.0,40,29.75,10.0,West,24.2,35.7,N/A,,Mostly Cloudy,280,2014-06-09 18:53:00
2:53 PM,73.9,48.9,41,29.74,10.0,West,29.9,38.0,N/A,,Scattered Clouds,280,2014-06-09 19:53:00
3:53 PM,72.0,48.9,44,29.73,10.0,West,26.5,34.5,N/A,,Mostly Cloudy,280,2014-06-09 20:53:00
4:53 PM,71.1,50.0,47,29.70,10.0,West,27.6,42.6,N/A,,Scattered Clouds,280,2014-06-09 21:53:00
5:53 PM,68.0,53.1,59,29.71,10.0,West,29.9,36.8,N/A,,Mostly Cloudy,270,2014-06-09 22:53:00
6:53 PM,63.0,57.9,84,29.71,10.0,West,17.3,26.5,0.00,Rain,Light Rain,270,2014-06-09 23:53:00
7:20 PM,66.2,59.0,78,29.76,10.0,NW,23.0,34.5,0.00,,Overcast,320,2014-06-10 00:20:00
7:53 PM,66.9,57.0,70,29.74,10.0,NW,24.2,31.1,0.00,,Mostly Cloudy,320,2014-06-10 00:53:00
8:53 PM,64.9,55.9,73,29.75,10.0,NW,26.5,36.8,N/A,,Mostly Cloudy,310,2014-06-10 01:53:00
9:53 PM,64.0,55.9,75,29.76,10.0,NW,25.3,31.1,N/A,,Mostly Cloudy,320,2014-06-10 02:53:00
10:05 PM,64.4,55.4,73,29.81,10.0,NW,25.3,36.8,N/A,,Mostly Cloudy,320,2014-06-10 03:05:00
10:13 PM,62.6,55.4,77,29.81,10.0,NW,21.9,32.2,N/A,,Scattered Clouds,320,2014-06-10 03:13:00
10:53 PM,63.0,55.0,75,29.77,10.0,NW,27.6,38.0,N/A,,Scattered Clouds,310,2014-06-10 03:53:00
11:32 PM,62.6,55.4,77,29.83,10.0,NW,23.0,36.8,0.00,,Overcast,320,2014-06-10 04:32:00
11:53 PM,62.1,55.9,80,29.78,10.0,NW,24.2,39.1,0.00,Rain,Light Rain,310,2014-06-10 04:53:00